Flag for Romania Weather past 2 weeks in Oradea, Romania

Now
61 °F

Passing clouds.


Feels Like: 61 °F
Forecast: 55 / 70 °F
Wind: 7 mph from East

Location: Oradea Airport


UV Index: 3 (Moderate)

Visibility: N/A


Pressure: 29.92 "Hg

Humidity: 83%

Dew point: 55 °F

Location of OradeaLocation

Historic Weather in Oradea

°F

Oradea temperature yesterday

Maximum temperature yesterday: 72 °F (at 4:00 PM)
Minimum temperature yesterday: 54 °F (at 6:30 AM)
Average temperature yesterday: 64 °F

Past Weeks' High & Low Weather Summary

 TemperatureHumidityPressure
High72 °F (Apr 18, 5:00 PM)100% (Apr 9, 10:30 PM)30.07 "Hg (Apr 9, 10:30 PM)
Low34 °F (Apr 10, 7:00 AM)40% (Apr 18, 2:00 PM)29.59 "Hg (Apr 19, 4:00 AM)
Average55 °F78%29.91 "Hg
* Reported Apr 9 10:00 PM — Apr 24 10:30 PM, Oradea, Weather by CustomWeather, © 2014

Note: Actual official high and low records may vary slightly from our data, if they occured in-between our weather recording intervals... More about our weather records

Advertising

Historic Weather Conditions — Data for Previous 24 hours

 ConditionsComfort  
Time TempWeatherWind HumidityBarometerVisibility
10:30 PM
Apr 24
61 °FPassing clouds.7 mph83%29.92 "HgN/A
10:00 PM63 °FClear.9 mph73%29.92 "Hg10 mi
9:30 PM63 °FSunny.12 mph73%29.89 "Hg10 mi
9:00 PM63 °FSunny.9 mph77%29.89 "Hg10 mi
8:30 PM63 °FSunny.9 mph77%29.89 "Hg10 mi
8:00 PM61 °FPassing clouds.7 mph94%29.89 "HgN/A
7:30 PM63 °FSunny.9 mph88%29.89 "Hg10 mi
7:00 PM63 °FPassing clouds.9 mph88%29.89 "HgN/A
6:30 PM63 °FPassing clouds.7 mph88%29.89 "HgN/A
6:00 PM63 °FPassing clouds.9 mph88%29.92 "HgN/A
5:30 PM64 °FLight rain. Passing clouds.14 mph78%29.92 "HgN/A
5:00 PM64 °FPassing clouds.2 mph83%29.92 "HgN/A
4:30 PM64 °FPassing clouds.2 mph88%29.92 "HgN/A
4:00 PM64 °FPassing clouds.2 mph88%29.92 "HgN/A
3:30 PM64 °FPassing clouds.2 mph88%29.92 "HgN/A
3:00 PM64 °FLight rain. Clear.7 mph88%29.92 "HgN/A
2:30 PM64 °FLight rain. Scattered clouds.5 mph88%29.92 "HgN/A
2:00 PM66 °FPartly sunny.7 mph83%29.92 "HgN/A
1:30 PM64 °FLight rain. Clear.9 mph83%29.92 "HgN/A
1:00 PM68 °FPassing clouds.7 mph73%29.92 "HgN/A
12:30 PM66 °FPassing clouds.5 mph73%29.92 "HgN/A
12:00 PM66 °FSunny.2 mph78%29.92 "Hg10 mi
11:30 AM68 °FSunny.2 mph69%29.92 "Hg10 mi
11:00 AM68 °FSunny.2 mph69%29.92 "Hg10 mi
10:00 AM63 °FSunny.2 mph88%29.92 "Hg10 mi
9:30 AM63 °FPassing clouds.5 mph83%29.92 "HgN/A
8:30 AM57 °FSunny.No wind100%29.92 "Hg10 mi
8:00 AM57 °FSunny.2 mph100%29.92 "Hg10 mi
7:30 AM55 °FSunny.2 mph100%29.92 "Hg10 mi
7:00 AM54 °FClear.2 mph100%29.92 "Hg10 mi
6:30 AM54 °FClear.2 mph100%29.92 "Hg10 mi
6:00 AM52 °FClear.2 mph100%29.92 "Hg10 mi
5:30 AM54 °FClear.2 mph100%29.92 "Hg10 mi
5:00 AM55 °FClear.5 mph100%29.92 "Hg10 mi
4:00 AM57 °FPassing clouds.5 mph94%29.92 "HgN/A
3:00 AM57 °FPartly cloudy.5 mph100%29.95 "HgN/A
2:00 AM57 °FPartly cloudy.5 mph100%29.95 "HgN/A
1:00 AM57 °FPassing clouds.5 mph100%29.98 "HgN/A
12:00 AMN/APassing clouds.5 mphN/A29.98 "Hg4 mi
11:00 PM
Apr 23
57 °FCool.5 mph100%30.01 "HgN/A
Weather by CustomWeather, © 2014

See weather overview